Hourly Weather Otradnoe

Today, 24 July, Saturday

Time Temperature Precipitation Wind Pressure Humidity
00:00 +26°C° 0 mm 1 mps 742 mmHg 80%
01:00 +26°C° 0.1 mm 1 mps 742 mmHg 81%
02:00 +26°C° 0.1 mm 1 mps 742 mmHg 83%
03:00 +25°C° 0 mm 1 mps 742 mmHg 84%
04:00 +25°C° 0 mm 1 mps 742 mmHg 84%
05:00 +26°C° 0 mm 1 mps 742 mmHg 84%
06:00 +26°C° 0 mm 1 mps 742 mmHg 84%
07:00 +28°C° 0 mm 1 mps 742 mmHg 72%
08:00 +31°C° 0 mm 1 mps 742 mmHg 60%
09:00 +35°C° 0 mm 2 mps 742 mmHg 50%
10:00 +36°C° 0 mm 2 mps 742 mmHg 46%
11:00 +38°C° 0 mm 2 mps 742 mmHg 42%
12:00 +39°C° 0 mm 2 mps 742 mmHg 37%
13:00 +39°C° 0 mm 3 mps 741 mmHg 37%
14:00 +39°C° 0 mm 3 mps 741 mmHg 38%
15:00 +39°C° 0 mm 3 mps 741 mmHg 38%
16:00 +37°C° 0 mm 3 mps 741 mmHg 43%
17:00 +35°C° 0 mm 3 mps 741 mmHg 49%
18:00 +33°C° 0 mm 3 mps 740 mmHg 55%
19:00 +30°C° 0.2 mm 3 mps 741 mmHg 67%
20:00 +27°C° 0.2 mm 2 mps 741 mmHg 79%
21:00 +24°C° 0.2 mm 2 mps 742 mmHg 91%
22:00 +24°C° 0 mm 2 mps 742 mmHg 91%
23:00 +23°C° 0 mm 2 mps 742 mmHg 91%

Tomorrow, 25 July, Sunday

Time Temperature Precipitation Wind Pressure Humidity
00:00 +23°C° 0 mm 2 mps 742 mmHg 91%
01:00 +23°C° 0 mm 2 mps 742 mmHg 91%
02:00 +23°C° 0 mm 2 mps 742 mmHg 91%
03:00 +23°C° 0 mm 2 mps 742 mmHg 90%
04:00 +23°C° 0 mm 2 mps 742 mmHg 90%
05:00 +23°C° 0 mm 2 mps 742 mmHg 89%
06:00 +23°C° 0 mm 2 mps 742 mmHg 89%
07:00 +26°C° 0 mm 2 mps 742 mmHg 76%
08:00 +28°C° 0 mm 3 mps 742 mmHg 64%
09:00 +31°C° 0 mm 3 mps 742 mmHg 52%
10:00 +33°C° 0 mm 4 mps 741 mmHg 48%
11:00 +34°C° 0 mm 4 mps 741 mmHg 44%
12:00 +36°C° 0 mm 5 mps 741 mmHg 40%
13:00 +36°C° 0 mm 5 mps 741 mmHg 39%
14:00 +36°C° 0 mm 5 mps 740 mmHg 38%
15:00 +36°C° 0 mm 5 mps 740 mmHg 38%
16:00 +35°C° 0 mm 5 mps 740 mmHg 44%
17:00 +33°C° 0 mm 4 mps 740 mmHg 50%
18:00 +30°C° 0 mm 4 mps 740 mmHg 56%
19:00 +28°C° 0 mm 3 mps 740 mmHg 66%
20:00 +26°C° 0 mm 3 mps 740 mmHg 77%
21:00 +24°C° 0 mm 3 mps 741 mmHg 87%
22:00 +24°C° 0 mm 3 mps 741 mmHg 90%
23:00 +24°C° 0 mm 2 mps 741 mmHg 93%

Day after tomorrow, 26 July, Monday

Time Temperature Precipitation Wind Pressure Humidity
00:00 +24°C° 0 mm 2 mps 740 mmHg 95%
01:00 +23°C° 0 mm 2 mps 740 mmHg 96%
02:00 +23°C° 0 mm 2 mps 740 mmHg 96%
03:00 +23°C° 0 mm 2 mps 740 mmHg 97%
04:00 +23°C° 0 mm 2 mps 740 mmHg 95%
05:00 +24°C° 0 mm 2 mps 740 mmHg 93%
06:00 +24°C° 0 mm 2 mps 740 mmHg 91%
07:00 +26°C° 0 mm 2 mps 740 mmHg 81%
08:00 +28°C° 0 mm 3 mps 740 mmHg 72%
09:00 +30°C° 0 mm 3 mps 740 mmHg 62%
10:00 +33°C° 0 mm 4 mps 740 mmHg 57%
11:00 +34°C° 0 mm 4 mps 739 mmHg 51%
12:00 +35°C° 0 mm 4 mps 739 mmHg 45%
13:00 +36°C° 0 mm 4 mps 739 mmHg 45%
14:00 +36°C° 0 mm 5 mps 739 mmHg 44%
15:00 +36°C° 0 mm 5 mps 738 mmHg 44%
16:00 +34°C° 0 mm 5 mps 738 mmHg 51%
17:00 +33°C° 0 mm 4 mps 738 mmHg 57%
18:00 +30°C° 0 mm 4 mps 738 mmHg 64%
19:00 +28°C° 0 mm 3 mps 738 mmHg 73%
20:00 +26°C° 0 mm 3 mps 739 mmHg 82%
21:00 +24°C° 0 mm 2 mps 739 mmHg 91%
22:00 +24°C° 0 mm 2 mps 739 mmHg 93%
23:00 +24°C° 0 mm 2 mps 739 mmHg 94%

27 July, Tuesday

Time Temperature Precipitation Wind Pressure Humidity
00:00 +23°C° 0 mm 2 mps 739 mmHg 95%
01:00 +23°C° 0 mm 2 mps 738 mmHg 95%
02:00 +23°C° 0 mm 1 mps 738 mmHg 95%
03:00 +23°C° 0 mm 1 mps 738 mmHg 95%
04:00 +23°C° 0 mm 1 mps 738 mmHg 93%
05:00 +23°C° 0 mm 1 mps 738 mmHg 91%
06:00 +24°C° 0 mm 1 mps 738 mmHg 89%
07:00 +26°C° 0 mm 1 mps 738 mmHg 77%
08:00 +29°C° 0 mm 1 mps 738 mmHg 64%
09:00 +32°C° 0 mm 1 mps 739 mmHg 52%
10:00 +34°C° 0 mm 1 mps 738 mmHg 47%
11:00 +36°C° 0 mm 1 mps 738 mmHg 41%
12:00 +37°C° 0 mm 1 mps 737 mmHg 36%
13:00 +39°C° 0 mm 1 mps 737 mmHg 34%
14:00 +40°C° 0 mm 1 mps 736 mmHg 32%
15:00 +40°C° 0 mm 2 mps 736 mmHg 30%
16:00 +39°C° 0 mm 2 mps 736 mmHg 34%
17:00 +38°C° 0 mm 2 mps 735 mmHg 39%
18:00 +37°C° 0 mm 2 mps 735 mmHg 44%
19:00 +34°C° 0 mm 2 mps 736 mmHg 52%
20:00 +31°C° 0 mm 2 mps 736 mmHg 59%
21:00 +28°C° 0 mm 2 mps 736 mmHg 67%
22:00 +27°C° 0 mm 1 mps 736 mmHg 70%
23:00 +27°C° 0 mm 1 mps 736 mmHg 73%

28 July, Wednesday

Time Temperature Precipitation Wind Pressure Humidity
00:00 +26°C° 0 mm 1 mps 736 mmHg 76%
01:00 +26°C° 0 mm 1 mps 736 mmHg 76%
02:00 +26°C° 0 mm 1 mps 736 mmHg 75%
03:00 +25°C° 0 mm 1 mps 736 mmHg 75%
04:00 +26°C° 0 mm 1 mps 736 mmHg 74%
05:00 +24°C° 0 mm 0 mps 737 mmHg 74%
06:00 +24°C° 0 mm 0 mps 737 mmHg 73%
07:00 +29°C° 0.1 mm 1 mps 737 mmHg 66%
08:00 +31°C° 0.1 mm 1 mps 737 mmHg 59%
09:00 +33°C° 0.1 mm 1 mps 737 mmHg 52%
10:00 +34°C° 0 mm 1 mps 737 mmHg 49%
11:00 +36°C° 0 mm 2 mps 736 mmHg 45%
12:00 +37°C° 0 mm 2 mps 736 mmHg 42%
13:00 +38°C° 0 mm 2 mps 736 mmHg 40%
14:00 +38°C° 0 mm 2 mps 735 mmHg 38%
15:00 +39°C° 0 mm 3 mps 735 mmHg 36%
16:00 +37°C° 0.1 mm 3 mps 735 mmHg 46%
17:00 +34°C° 0.1 mm 3 mps 735 mmHg 56%
18:00 +31°C° 0.1 mm 3 mps 735 mmHg 65%
19:00 +29°C° 0.1 mm 3 mps 736 mmHg 73%
20:00 +27°C° 0.1 mm 2 mps 736 mmHg 81%
21:00 +25°C° 0.1 mm 2 mps 736 mmHg 89%
22:00 +25°C° 0.1 mm 2 mps 736 mmHg 88%
23:00 +25°C° 0.1 mm 1 mps 736 mmHg 88%

29 July, Thursday

Time Temperature Precipitation Wind Pressure Humidity
00:00 +24°C° 0.1 mm 1 mps 736 mmHg 88%
01:00 +24°C° 0.6 mm 1 mps 736 mmHg 89%
02:00 +24°C° 0.6 mm 1 mps 736 mmHg 91%
03:00 +24°C° 0.6 mm 1 mps 736 mmHg 92%
04:00 +24°C° 0.3 mm 1 mps 736 mmHg 92%
05:00 +24°C° 0.3 mm 1 mps 736 mmHg 92%
06:00 +24°C° 0.3 mm 1 mps 736 mmHg 92%
07:00 +26°C° 0 mm 1 mps 736 mmHg 83%
08:00 +28°C° 0 mm 1 mps 736 mmHg 73%
09:00 +30°C° 0 mm 1 mps 736 mmHg 64%
10:00 +32°C° 0 mm 1 mps 735 mmHg 56%
11:00 +35°C° 0 mm 2 mps 735 mmHg 49%
12:00 +37°C° 0 mm 2 mps 735 mmHg 42%
13:00 +38°C° 0 mm 3 mps 734 mmHg 40%
14:00 +38°C° 0 mm 3 mps 734 mmHg 38%
15:00 +38°C° 0 mm 4 mps 734 mmHg 36%
16:00 +36°C° 0 mm 4 mps 734 mmHg 42%
17:00 +34°C° 0 mm 3 mps 734 mmHg 47%
18:00 +31°C° 0 mm 3 mps 734 mmHg 53%
19:00 +29°C° 0 mm 2 mps 734 mmHg 64%
20:00 +27°C° 0 mm 2 mps 735 mmHg 76%
21:00 +24°C° 0 mm 1 mps 735 mmHg 87%
22:00 +24°C° 0.3 mm 1 mps 735 mmHg 88%
23:00 +24°C° 0.3 mm 1 mps 735 mmHg 88%
Show more